Location: Unspecified
(0.0000°N, 0.0000°E)
Time: 20:16:07
(UTC+00:00)

Tiangong - Pass Details

Date: 16 June 2025
Orbit: 387 x 393 km, 41.5° (Epoch: 22 June)

Event Time Altitude Azimuth Distance (km) Brightness Sun altitude
Rises 20:06:30 0° 304° (WNW) 2,252 3.0 -28.6°
Reaches altitude 10° 20:08:38 10° 296° (WNW) 1,402 1.6 -29.0°
Enters shadow 20:09:13 14° 292° (WNW) 1,179 1.1 -29.2°
